Weather in Sulost

Russia / Yaroslavl Oblast     57°12′08″N   39°31′10″E
temp.,
°C
wind,
m/s
gust,
m/s
humid.,
%
clouds,
%
prec.,
mm/h
press.,
hPa
HPBL,
m
11 may, tue
tue1100:00+5ne22755 0.0 102811
03:00+4ne22765 0.0 102922
06:00+6ene258141 0.0 1030129
09:00+12ene46625 0.0 1030537
12:00+16ene56505 0.0 1029889
15:00+17e55460 0.0 1028945
18:00+17ene36625 0.0 1027254
21:00+11e35720 0.0 102849
12 may, wed
wed1200:00+10ese33810 0.0 102826
03:00+9e22890 0.0 102811
06:00+11e249071 0.0 1028113
09:00+17ene457648 0.0 1027437
12:00+21ene67635 0.0 1026982
15:00+22e710635 0.3 10241691
18:00+17se61285100 2.4 1023441
21:00+15ese51381100 2.8 1022421
13 may, thu
thu1300:00+14se5119188 0.0 1023502
03:00+13ese4894100 0.0 1023326
06:00+13ese4794100 0.0 1022302
09:00+17se578077 0.1 1022858
12:00+19ese687145 0.1 1020971
15:00+22ese7116283 0.6 10161858
18:00+15sse71390100 2.8 1016928
21:00+13sse369635 4.3 1016187
14 may, fri
fri1400:00+11sse22955 0.1 101637
03:00+10s3796100 0.1 1018165
06:00+11s36956 0.0 1018217
09:00+16ssw4669100 0.0 1019666
12:00+18s4662100 0.0 10181135
15:00+20s466428 0.2 10181356
18:00+18se3682100 1.6 1016183
21:00+15ese2296100 5.9 101543
15 may, sat
sat1500:00+14ese3896100 12.4 1014152
03:00+14se31097100 12.9 1012236
06:00+16sse4119399 0.2 1012305
09:00+19sse5985100 0.8 1012474
12:00+22s587184 2.3 1011768
15:00+23s576511 2.8 10091343
18:00+17s81488100 1.8 1009703
21:00+13sse513924 1.9 1009353